Location: ??????
(56.0120°N, 39.1740°E)
Time: 07:59:21
(UTC+00:00)

Cosmos 1656 - Pass Details

Date: 14 April 2026
Orbit: 798 x 846 km, 71.1° (Epoch: 9 May)

Event Time Altitude Azimuth Distance (km) Brightness Sun altitude
Rises 21:59:06 0° 323° (NW) 3,319 7.4 -23.9°
Reaches altitude 10° 22:01:37 10° 316° (NW) 2,387 6.5 -23.8°
Enters shadow 22:06:33 40° 252° (WSW) 1,176 4.2 -23.7°
